EW9092 Weather Reports


Display with metric or nautical units.
time (UTC)temp
F
wind
direction
speed
MPH
gust
MPH
rain 1hr
in
rain 24hr
in
rain mn
in
humidity
%
barometer
mb
20260509114622 63 146 0.0 0.0 0.00 0.00 0.00 40 1013.1
20260509114124 63 91 0.0 0.0 0.00 0.00 0.00 41 1012.9
20260509113623 63 91 0.0 0.0 0.00 0.00 0.00 40 1013.1
20260509113122 63 91 0.0 0.0 0.00 0.00 0.00 40 1013.1
20260509112616 64 91 0.0 0.0 0.00 0.00 0.00 39 1012.9
20260509112332 64 65 0.0 0.0 0.00 0.00 0.00 39 1012.9
20260509111833 65 65 0.0 0.0 0.00 0.00 0.00 36 1013.1
20260509111110 66 65 0.0 0.0 0.00 0.00 0.00 35 1012.9
20260509110610 65 65 0.0 0.0 0.00 0.00 0.00 34 1012.9
20260509110106 65 65 0.0 0.0 0.00 0.00 0.00 35 1012.8
20260509105604 65 65 0.0 0.0 0.00 0.00 0.00 35 1012.8
20260509105100 65 65 0.0 0.0 0.00 0.00 0.00 35 1012.8
20260509104600 66 65 0.0 0.0 0.00 0.00 0.00 35 1012.8
20260509104108 66 65 0.0 0.0 0.00 0.00 0.00 34 1012.9
20260509103557 65 39 0.0 0.0 0.00 0.00 0.00 35 1012.9
20260509103047 65 20 0.0 0.0 0.00 0.00 0.00 35 1012.9
20260509102541 65 20 0.0 0.0 0.00 0.00 0.00 36 1012.8
20260509102300 65 20 0.0 0.0 0.00 0.00 0.00 36 1012.9
20260509101745 65 20 0.0 0.0 0.00 0.00 0.00 34 1012.8
20260509101019 66 20 0.0 0.0 0.00 0.00 0.00 35 1012.9
20260509100513 66 20 0.0 0.0 0.00 0.00 0.00 35 1012.9
20260509100005 66 20 0.0 1.0 0.00 0.00 0.00 34 1012.9
20260509095719 66 20 0.0 1.0 0.00 0.00 0.00 34 1012.9
20260509094951 67 20 0.0 3.0 0.00 0.00 0.00 34 1012.9
20260509094441 67 20 1.0 3.0 0.00 0.00 0.00 33 1012.9
20260509093935 68 2 1.0 2.0 0.00 0.00 0.00 31 1012.9
20260509093430 69 359 0.0 2.0 0.00 0.00 0.00 29 1012.9
20260509092919 70 153 1.0 3.0 0.00 0.00 0.00 28 1012.8
20260509092413 70 158 1.0 3.0 0.00 0.00 0.00 27 1012.8
20260509091908 70 194 1.0 3.0 0.00 0.00 0.00 26 1012.9
20260509091358 70 165 1.0 2.0 0.00 0.00 0.00 27 1012.9
20260509090852 70 155 1.0 2.0 0.00 0.00 0.00 27 1012.9
20260509090352 70 144 0.0 2.0 0.00 0.00 0.00 27 1012.9
20260509085848 71 160 0.0 2.0 0.00 0.00 0.00 27 1012.9
20260509085348 71 171 0.0 2.0 0.00 0.00 0.00 26 1013.1
20260509084848 71 150 0.0 2.0 0.00 0.00 0.00 26 1012.9
20260509084605 71 144 1.0 4.0 0.00 0.00 0.00 26 1012.9
20260509083849 71 137 2.0 4.0 0.00 0.00 0.00 26 1012.9
20260509083349 71 145 2.0 4.0 0.00 0.00 0.00 26 1012.9
20260509082848 71 138 2.0 4.0 0.00 0.00 0.00 26 1013.1
20260509082348 71 148 1.0 3.0 0.00 0.00 0.00 26 1013.1
20260509081848 71 153 1.0 2.0 0.00 0.00 0.00 26 1012.9
20260509081348 71 128 1.0 2.0 0.00 0.00 0.00 26 1013.1
20260509080849 70 152 0.0 2.0 0.00 0.00 0.00 26 1013.1
20260509080351 70 71 0.0 1.0 0.00 0.00 0.00 28 1013.1
20260509075850 71 68 0.0 1.0 0.00 0.00 0.00 27 1013.1
20260509075341 71 68 0.0 1.0 0.00 0.00 0.00 27 1012.9
20260509074835 72 134 0.0 2.0 0.00 0.00 0.00 24 1013.1
20260509074335 73 134 1.0 2.0 0.00 0.00 0.00 24 1012.9
20260509073835 73 150 1.0 3.0 0.00 0.00 0.00 24 1013.1
20260509073601 73 165 1.0 4.0 0.00 0.00 0.00 23 1012.9
20260509073052 73 205 1.0 4.0 0.00 0.00 0.00 23 1012.9
20260509072332 72 143 1.0 3.0 0.00 0.00 0.00 23 1012.9
20260509072052 72 203 1.0 3.0 0.00 0.00 0.00 23 1012.8
20260509071557 73 167 1.0 3.0 0.00 0.00 0.00 23 1012.8
20260509070832 72 179 1.0 4.0 0.00 0.00 0.00 23 1012.8
20260509070331 72 153 1.0 4.0 0.00 0.00 0.00 24 1012.9
20260509065806 72 133 0.0 2.0 0.00 0.00 0.00 25 1012.8
20260509065306 72 240 0.0 2.0 0.00 0.00 0.00 26 1012.8
20260509064805 72 29 0.0 2.0 0.00 0.00 0.00 26 1012.9
20260509064301 73 33 1.0 4.0 0.00 0.00 0.00 24 1012.8
20260509063755 73 156 1.0 4.0 0.00 0.00 0.00 23 1012.7
20260509063251 73 193 1.0 3.0 0.00 0.00 0.00 23 1012.6
20260509062751 74 145 1.0 3.0 0.00 0.00 0.00 23 1012.6
20260509062250 74 160 1.0 2.0 0.00 0.00 0.00 23 1012.6
20260509061756 74 149 0.0 2.0 0.00 0.00 0.00 23 1012.6
20260509061251 74 169 1.0 2.0 0.00 0.00 0.00 24 1012.6
20260509060750 74 142 1.0 2.0 0.00 0.00 0.00 24 1012.6
20260509060247 74 158 1.0 2.0 0.00 0.00 0.00 24 1012.6
20260509055748 74 151 0.0 3.0 0.00 0.00 0.00 24 1012.6
20260509055248 74 159 0.0 3.0 0.00 0.00 0.00 24 1012.5
20260509054746 74 209 0.0 2.0 0.00 0.00 0.00 24 1012.5
20260509054514 74 158 0.0 1.0 0.00 0.00 0.00 24 1012.5
20260509053746 75 157 0.0 0.0 0.00 0.00 0.00 25 1012.5
20260509053247 75 155 0.0 2.0 0.00 0.00 0.00 24 1012.5
20260509052745 75 155 0.0 2.0 0.00 0.00 0.00 24 1012.5
20260509052514 75 154 0.0 2.0 0.00 0.00 0.00 24 1012.4
20260509051741 75 134 0.0 0.0 0.00 0.00 0.00 24 1012.4
20260509051241 75 91 0.0 0.0 0.00 0.00 0.00 24 1012.4
20260509050740 76 91 0.0 0.0 0.00 0.00 0.00 23 1012.4
20260509050241 76 91 0.0 0.0 0.00 0.00 0.00 23 1012.4
20260509045742 77 91 0.0 0.0 0.00 0.00 0.00 23 1012.4
20260509045244 77 91 0.0 0.0 0.00 0.00 0.00 21 1012.4
20260509044740 77 91 0.0 0.0 0.00 0.00 0.00 22 1012.4
20260509044235 78 91 0.0 0.0 0.00 0.00 0.00 20 1012.3
20260509043952 78 91 0.0 0.0 0.00 0.00 0.00 20 1012.2
20260509043231 78 91 0.0 0.0 0.00 0.00 0.00 20 1012.2
20260509042732 79 91 0.0 0.0 0.00 0.00 0.00 19 1012.2
20260509042229 79 91 1.0 2.0 0.00 0.00 0.00 18 1012.1
20260509041731 79 91 1.0 2.0 0.00 0.00 0.00 18 1012.1
20260509041229 80 78 0.0 2.0 0.00 0.00 0.00 19 1012.1
20260509040951 80 264 0.0 0.0 0.00 0.00 0.00 18 1011.9
20260509040226 81 264 0.0 0.0 0.00 0.00 0.00 18 1011.9
20260509035953 81 264 0.0 0.0 0.00 0.00 0.00 17 1011.8
20260509035436 82 264 0.0 2.0 0.00 0.00 0.00 17 1011.8
20260509034712 82 264 0.0 2.0 0.00 0.00 0.00 16 1011.8
20260509034203 83 272 1.0 3.0 0.00 0.00 0.00 16 1011.8
20260509033924 83 270 1.0 3.0 0.00 0.00 0.00 16 1011.6
20260509033203 83 278 1.0 5.0 0.00 0.00 0.00 15 1011.6
20260509032923 84 281 1.0 5.0 0.00 0.00 0.00 15 1011.5
20260509032416 84 261 1.0 5.0 0.00 0.00 0.00 15 1011.5
20260509031659 84 288 1.0 5.0 0.00 0.00 0.00 15 1011.4
20260509031159 84 284 2.0 5.0 0.00 0.00 0.00 15 1011.4
20260509030920 85 269 2.0 5.0 0.00 0.00 0.00 14 1011.4
20260509030157 85 280 2.0 5.0 0.00 0.00 0.00 14 1011.3
20260509025657 85 275 2.0 5.0 0.00 0.00 0.00 14 1011.3
20260509025200 85 276 2.0 5.0 0.00 0.00 0.00 14 1011.2
20260509024659 85 252 2.0 6.0 0.00 0.00 0.00 14 1011.2
20260509024158 85 284 2.0 6.0 0.00 0.00 0.00 14 1011.1
20260509023657 85 246 2.0 5.0 0.00 0.00 0.00 14 1011.0
20260509023158 86 277 2.0 5.0 0.00 0.00 0.00 14 1011.0
20260509022926 86 267 2.0 5.0 0.00 0.00 0.00 14 1010.9
20260509022157 86 267 2.0 5.0 0.00 0.00 0.00 13 1010.9
20260509021656 87 276 2.0 5.0 0.00 0.00 0.00 13 1010.9
20260509021156 87 278 2.0 5.0 0.00 0.00 0.00 13 1010.8
20260509020920 88 278 2.0 5.0 0.00 0.00 0.00 13 1010.8
20260509020158 88 283 2.0 7.0 0.00 0.00 0.00 12 1010.8
20260509015656 89 267 2.0 7.0 0.00 0.00 0.00 12 1010.7
20260509015155 89 271 2.0 6.0 0.00 0.00 0.00 12 1010.7
20260509014655 89 25 3.0 7.0 0.00 0.00 0.00 11 1010.6
20260509014157 90 284 3.0 7.0 0.00 0.00 0.00 11 1010.6
20260509013656 90 248 3.0 8.0 0.00 0.00 0.00 11 1010.6
20260509013156 90 258 4.0 9.0 0.00 0.00 0.00 12 1010.5
20260509012655 90 286 4.0 9.0 0.00 0.00 0.00 11 1010.5
20260509012156 91 278 4.0 8.0 0.00 0.00 0.00 11 1010.5
20260509011655 91 257 4.0 9.0 0.00 0.00 0.00 11 1010.6
20260509011639 91 7 5.0 11.0 0.00 0.00 0.00 11 1010.5
20260509010656 91 300 5.0 11.0 0.00 0.00 0.00 11 1010.6
20260509010156 91 313 5.0 12.0 0.00 0.00 0.00 10 1010.6
20260509005921 92 264 3.0 12.0 0.00 0.00 0.00 10 1010.6
20260509005156 91 211 3.0 9.0 0.00 0.00 0.00 10 1010.6
20260509004656 92 337 4.0 10.0 0.00 0.00 0.00 10 1010.6
20260509004155 92 323 5.0 10.0 0.00 0.00 0.00 10 1010.6
20260509003657 92 331 5.0 11.0 0.00 0.00 0.00 10 1010.6
20260509003157 92 284 4.0 11.0 0.00 0.00 0.00 10 1010.6
20260509002653 92 348 6.0 12.0 0.00 0.00 0.00 10 1010.6
20260509002153 92 26 6.0 12.0 0.00 0.00 0.00 10 1010.5
20260509001650 92 265 6.0 13.0 0.00 0.00 0.00 10 1010.6
20260509001149 92 249 4.0 13.0 0.00 0.00 0.00 10 1010.5
20260509000650 92 299 4.0 13.0 0.00 0.00 0.00 10 1010.5
20260509000150 92 293 5.0 13.0 0.00 0.00 0.00 11 1010.6
20260508235649 93 252 5.0 10.0 0.00 0.00 0.00 10 1010.6
20260508235149 93 281 5.0 8.0 0.00 0.00 0.00 10 1010.6
20260508234649 93 276 4.0 13.0 0.00 0.00 0.00 10 1010.6
20260508234411 92 14 5.0 13.0 0.00 0.00 0.00 10 1010.6
20260508233645 92 338 5.0 11.0 0.00 0.00 0.00 10 1010.6
20260508233133 93 277 5.0 14.0 0.00 0.00 0.00 11 1010.7
20260508232627 93 296 4.0 14.0 0.00 0.00 0.00 11 1010.8
20260508232122 93 3 5.0 15.0 0.00 0.00 0.00 11 1010.8
20260508231611 93 307 6.0 15.0 0.00 0.00 0.00 11 1010.8
20260508231105 92 271 6.0 12.0 0.00 0.00 0.00 11 1010.8
20260508230600 92 265 6.0 11.0 0.00 0.00 0.00 11 1010.9
20260508230048 93 288 5.0 11.0 0.00 0.00 0.00 11 1011.0
20260508225545 93 333 5.0 11.0 0.00 0.00 0.00 11 1011.0
20260508225045 93 264 5.0 11.0 0.00 0.00 0.00 11 1011.0
20260508224546 93 252 6.0 14.0 0.00 0.00 0.00 12 1011.0
20260508224045 92 261 8.0 14.0 0.00 0.00 0.00 12 1011.1
20260508223544 92 290 7.0 14.0 0.00 0.00 0.00 11 1011.1
20260508223306 92 242 6.0 12.0 0.00 0.00 0.00 12 1011.1
20260508223036 92 262 5.0 12.0 0.00 0.00 0.00 11 1011.2
20260508222042 93 264 4.0 9.0 0.00 0.00 0.00 12 1011.3
20260508221541 92 265 6.0 13.0 0.00 0.00 0.00 12 1011.3
20260508221042 92 284 6.0 13.0 0.00 0.00 0.00 12 1011.4
20260508220542 92 282 5.0 12.0 0.00 0.00 0.00 12 1011.5
20260508220042 92 299 6.0 11.0 0.00 0.00 0.00 12 1011.6
20260508215541 92 273 7.0 13.0 0.00 0.00 0.00 12 1011.6
20260508215045 92 250 6.0 13.0 0.00 0.00 0.00 13 1011.6
20260508214758 92 233 5.0 13.0 0.00 0.00 0.00 12 1011.8
20260508214028 92 264 6.0 13.0 0.00 0.00 0.00 12 1011.9
20260508213523 92 257 6.0 12.0 0.00 0.00 0.00 13 1012.0
20260508213013 92 238 7.0 13.0 0.00 0.00 0.00 12 1012.1
20260508212508 91 256 8.0 14.0 0.00 0.00 0.00 13 1012.1
20260508212000 91 283 7.0 14.0 0.00 0.00 0.00 12 1012.2
20260508211451 91 342 7.0 13.0 0.00 0.00 0.00 13 1012.3
20260508211205 91 340 8.0 15.0 0.00 0.00 0.00 13 1012.3
20260508210439 91 283 7.0 17.0 0.00 0.00 0.00 13 1012.3
20260508205929 91 275 7.0 13.0 0.00 0.00 0.00 13 1012.4
20260508205423 91 346 7.0 14.0 0.00 0.00 0.00 13 1012.4
20260508204917 91 286 6.0 14.0 0.00 0.00 0.00 13 1012.5
20260508204411 91 349 6.0 12.0 0.00 0.00 0.00 13 1012.6
20260508203908 91 300 6.0 12.0 0.00 0.00 0.00 13 1012.7
20260508203405 91 252 6.0 12.0 0.00 0.00 0.00 13 1012.7
20260508202905 91 297 6.0 11.0 0.00 0.00 0.00 13 1012.8
20260508202407 91 348 6.0 12.0 0.00 0.00 0.00 14 1012.9
20260508201903 91 243 6.0 12.0 0.00 0.00 0.00 13 1012.8
20260508201632 90 238 6.0 12.0 0.00 0.00 0.00 14 1012.9
20260508200905 90 278 6.0 12.0 0.00 0.00 0.00 14 1013.1
20260508200401 90 275 6.0 12.0 0.00 0.00 0.00 14 1013.1
20260508200129 89 259 6.0 13.0 0.00 0.00 0.00 15 1013.2
20260508195401 89 248 6.0 13.0 0.00 0.00 0.00 15 1013.4
20260508194859 90 274 5.0 12.0 0.00 0.00 0.00 15 1013.4
20260508194359 89 243 4.0 8.0 0.00 0.00 0.00 15 1013.4
20260508194120 89 283 4.0 13.0 0.00 0.00 0.00 15 1013.5
20260508193359 89 285 5.0 13.0 0.00 0.00 0.00 15 1013.5
20260508192856 89 286 5.0 13.0 0.00 0.00 0.00 15 1013.5
20260508192606 88 231 3.0 13.0 0.00 0.00 0.00 16 1013.6
20260508191845 88 276 4.0 9.0 0.00 0.00 0.00 15 1013.6
20260508191337 89 203 4.0 8.0 0.00 0.00 0.00 16 1013.7
20260508190839 88 240 4.0 7.0 0.00 0.00 0.00 16 1013.8
20260508190335 88 279 3.0 7.0 0.00 0.00 0.00 16 1013.9
20260508185836 88 342 2.0 6.0 0.00 0.00 0.00 16 1014.0
20260508185336 88 330 2.0 6.0 0.00 0.00 0.00 17 1014.1
20260508185102 87 343 2.0 5.0 0.00 0.00 0.00 17 1014.1
20260508184559 87 242 2.0 4.0 0.00 0.00 0.00 17 1014.2
20260508183833 86 274 3.0 8.0 0.00 0.00 0.00 17 1014.4
20260508183333 87 262 3.0 8.0 0.00 0.00 0.00 17 1014.5
20260508182835 87 285 3.0 8.0 0.00 0.00 0.00 17 1014.5
20260508182331 87 207 2.0 8.0 0.00 0.00 0.00 17 1014.5
20260508182055 87 275 2.0 4.0 0.00 0.00 0.00 18 1014.5
20260508181329 86 264 2.0 7.0 0.00 0.00 0.00 18 1014.6
20260508180829 86 293 2.0 7.0 0.00 0.00 0.00 18 1014.7
20260508180328 85 281 2.0 7.0 0.00 0.00 0.00 18 1014.8
20260508175824 85 233 2.0 7.0 0.00 0.00 0.00 19 1014.9
20260508175324 85 290 2.0 6.0 0.00 0.00 0.00 19 1015.0
20260508174825 84 338 2.0 5.0 0.00 0.00 0.00 19 1015.1
20260508174326 84 224 2.0 5.0 0.00 0.00 0.00 19 1015.2
20260508174057 84 204 1.0 5.0 0.00 0.00 0.00 19 1015.2
20260508173325 83 299 1.0 4.0 0.00 0.00 0.00 20 1015.2
20260508172824 83 268 1.0 4.0 0.00 0.00 0.00 19 1015.2
20260508172321 82 60 1.0 3.0 0.00 0.00 0.00 20 1015.2
20260508171819 82 321 1.0 3.0 0.00 0.00 0.00 21 1015.3
20260508171318 82 286 2.0 4.0 0.00 0.00 0.00 20 1015.4
20260508170815 81 212 3.0 6.0 0.00 0.00 0.00 21 1015.4
20260508170315 81 236 2.0 6.0 0.00 0.00 0.00 20 1015.4
20260508165818 82 277 1.0 5.0 0.00 0.00 0.00 21 1015.5
20260508165317 81 278 1.0 4.0 0.00 0.00 0.00 21 1015.4
20260508164816 81 273 2.0 5.0 0.00 0.00 0.00 21 1015.5
20260508164314 80 227 1.0 5.0 0.00 0.00 0.00 21 1015.7
20260508164246 80 266 1.0 4.0 0.00 0.00 0.00 22 1015.5
20260508163302 80 305 1.0 5.0 0.00 0.00 0.00 22 1015.5
20260508162759 80 188 2.0 5.0 0.00 0.00 0.00 22 1015.7
20260508162256 79 293 1.0 4.0 0.00 0.00 0.00 23 1015.7
20260508161753 79 217 1.0 4.0 0.00 0.00 0.00 23 1015.8
20260508161521 78 233 1.0 4.0 0.00 0.00 0.00 23 1015.8
20260508161019 79 273 2.0 4.0 0.00 0.00 0.00 23 1015.8
20260508160252 78 260 2.0 4.0 0.00 0.00 0.00 23 1015.7
20260508155754 78 240 1.0 4.0 0.00 0.00 0.00 23 1015.7
20260508155250 78 205 1.0 5.0 0.00 0.00 0.00 24 1015.7
20260508154751 77 205 2.0 5.0 0.00 0.00 0.00 24 1015.7
20260508154251 77 231 1.0 5.0 0.00 0.00 0.00 24 1015.7
20260508154015 77 265 1.0 4.0 0.00 0.00 0.00 24 1015.7
20260508153248 77 240 1.0 4.0 0.00 0.00 0.00 25 1015.7
20260508153227 77 219 1.0 4.0 0.00 0.00 0.00 25 1015.7
20260508152242 76 231 1.0 4.0 0.00 0.00 0.00 25 1015.7
20260508151742 75 142 1.0 3.0 0.00 0.00 0.00 27 1015.8
20260508151243 74 226 1.0 3.0 0.00 0.00 0.00 27 1015.8
20260508150741 73 303 0.0 2.0 0.00 0.00 0.00 29 1015.7
20260508150245 72 308 1.0 3.0 0.00 0.00 0.00 30 1015.8
20260508150228 72 4 1.0 3.0 0.00 0.00 0.00 31 1015.8
20260508145243 72 4 0.0 3.0 0.00 0.00 0.00 31 1015.8
20260508144741 72 85 0.0 3.0 0.00 0.00 0.00 32 1015.8
20260508144241 71 86 0.0 1.0 0.00 0.00 0.00 32 1015.7
20260508144008 71 86 0.0 0.0 0.00 0.00 0.00 33 1015.8
20260508143238 70 86 1.0 2.0 0.00 0.00 0.00 34 1015.8
20260508142957 69 86 1.0 2.0 0.00 0.00 0.00 35 1015.7
20260508142239 68 86 1.0 2.0 0.00 0.00 0.00 36 1015.8
20260508141740 68 97 0.0 0.0 0.00 0.00 0.00 36 1015.8
20260508141459 67 97 0.0 0.0 0.00 0.00 0.00 38 1015.7
20260508140735 66 97 0.0 0.0 0.00 0.00 0.00 38 1015.8
20260508140235 66 31 0.0 0.0 0.00 0.00 0.00 40 1015.7
20260508135735 65 31 0.0 0.0 0.00 0.00 0.00 41 1015.7
20260508135234 64 32 0.0 1.0 0.00 0.00 0.00 42 1015.5
20260508134736 63 32 0.0 1.0 0.00 0.00 0.00 43 1015.7
20260508134235 63 33 0.0 0.0 0.00 0.00 0.00 43 1015.5
20260508133736 62 33 0.0 3.0 0.00 0.00 0.00 44 1015.5
20260508133235 61 33 0.0 3.0 0.00 0.00 0.00 48 1015.4
20260508132735 61 359 0.0 3.0 0.00 0.00 0.00 47 1015.3
20260508132458 61 336 0.0 0.0 0.00 0.00 0.00 48 1015.3
20260508131734 60 336 0.0 0.0 0.00 0.00 0.00 48 1015.3
20260508131235 61 144 0.0 0.0 0.00 0.00 0.00 47 1015.2
20260508130736 60 144 0.0 0.0 0.00 0.00 0.00 47 1015.1
20260508130236 60 144 0.0 0.0 0.00 0.00 0.00 48 1015.1
20260508125955 59 144 0.0 0.0 0.00 0.00 0.00 48 1014.9
20260508125230 59 144 0.0 0.0 0.00 0.00 0.00 48 1014.8
20260508124732 58 144 0.0 0.0 0.00 0.00 0.00 48 1014.8
20260508124507 58 144 0.0 0.0 0.00 0.00 0.00 47 1014.8
20260508123950 58 144 0.0 1.0 0.00 0.00 0.00 47 1014.7
20260508123230 58 144 0.0 2.0 0.00 0.00 0.00 47 1014.6
20260508122729 58 144 0.0 2.0 0.00 0.00 0.00 48 1014.6
20260508122456 58 222 0.0 0.0 0.00 0.00 0.00 50 1014.7
20260508121949 58 224 0.0 0.0 0.00 0.00 0.00 51 1014.6
20260508121449 58 225 0.0 0.0 0.00 0.00 0.00 50 1014.5
20260508120725 58 160 0.0 0.0 0.00 0.00 0.00 51 1014.5
20260508120441 58 160 0.0 0.0 0.00 0.00 0.00 50 1014.5
20260508115723 58 160 0.0 0.0 0.00 0.00 0.00 50 1014.4